Regional Weather Roundup
Issued by NWS

Home | Current Version | Previous Version | Text Only | Print | Product List | Glossary On
Versions: 1 2 3 4 5 6 7 8 9 10 11 12 13 14 15 16 17 18 19 20 21 22 23 24 25 26 27 28
000
ASUS45 KBOI 230310
RWRID
WEATHER ROUNDUP FOR IDAHO
NATIONAL WEATHER SERVICE BOISE ID
900 PM MDT WED OCT 22 2014

NOTE: "FAIR" INDICATES FEW OR NO CLOUDS BELOW 12000 FEET
WITH NO SIGNIFICANT WEATHER AND/OR OBSTRUCTIONS TO VISIBILITY

IDZ012-014-230400-
SOUTHWEST IDAHO


CITY           SKY/WX    TMP DP  RH WIND       PRES   REMARKS
BOISE          CLOUDY    62  30  29 E14       29.99S
CALDWELL       CLOUDY    57  32  38 S13G18    30.00F
MOUNTAIN HOME  CLOUDY    57  35  43 E14       30.03S
$$

IDZ016-017-230400-
SOUTHCENTRAL IDAHO


CITY           SKY/WX    TMP DP  RH WIND       PRES   REMARKS
BURLEY         MOCLDY    43  31  62 SW3       30.08F
JEROME         CLOUDY    53  27  36 NE13      30.09F
TWIN FALLS     MOCLDY    49  32  52 SE5       30.09S
$$

IDZ019>023-230400-
SOUTHEAST IDAHO


CITY           SKY/WX    TMP DP  RH WIND       PRES   REMARKS
IDAHO FALLS    MOCLDY    44  30  57 SE7       30.15F
POCATELLO      CLEAR     51  25  36 S8        30.14F
REXBURG        PTCLDY    41  27  57 CALM      30.15F
$$

IDZ006-010-011-018-031-032-230400-
CENTRAL IDAHO MOUNTAINS


CITY           SKY/WX    TMP DP  RH WIND       PRES   REMARKS
MCCALL         CLOUDY    47  34  60 SE10      30.01F
HAILEY         CLOUDY    46  30  53 CALM      30.15F
STANLEY          N/A     43  27  53 SE9       30.12S
SALMON         MOCLDY   N/A N/A N/A MISG        N/A
CHALLIS        CLOUDY    45  33  63 CALM      30.07S
$$

IDZ002-004-006-007-026-230400-
NORTHERN IDAHO


CITY           SKY/WX    TMP DP  RH WIND       PRES   REMARKS
LEWISTON       CLOUDY    66  34  30 S6        29.80R
LOWELL           N/A     51  49  92 NW6       29.90F
COEUR D`ALENE  CLOUDY    52  45  76 N8        29.79S
MULLAN PASS    CLOUDY    43  33  68 S13G23    29.88F
$$



USA.gov is the U.S. government's official web portal to all federal, state and local government web resources and services.